Regional Weather Roundup
Issued by NWS

Home | Current Version | Previous Version | Text Only | Print | Product List | Glossary Off
Versions: 1 2 3 4 5 6 7 8 9 10 11 12 13 14 15 16 17 18 19 20 21 22 23 24 25 26 27 28 29 30 31 32 33 34 35 36 37 38 39 40 41 42 43 44 45 46 47 48 49 50

000
ASUS43 KDMX 262304
RWRIA

WEATHER ROUNDUP FOR IOWA
NATIONAL WEATHER SERVICE DES MOINES IA
  ISSUED BY NWS QUAD CITIES IA IL
500 PM CST MON JAN 26 2015

NOTE: "FAIR" INDICATES FEW OR NO CLOUDS BELOW 12,000 FEET WITH NO
SIGNIFICANT WEATHER AND/OR OBSTRUCTIONS TO VISIBILITY.

* - THESE STATIONS ARE NOT NWS STATIONS...THUS NOT UNDER NWS
QUALITY CONTROL.  THEY ALSO DO NOT REPORT WEATHER SUCH
AS PRECIPITATION OR FOG.

IAZ001>003-012>014-020>022-031>034-043>046-270000-
   NORTHWEST IOWA

CITY           SKY/WX    TMP DP  RH WIND       PRES   REMARKS
CARROLL *      CLEAR     46  37  71 NW20      29.90R
DENNISON *     CLEAR     48  37  66 NW15      29.92R
LE MARS *      CLEAR     48  39  71 NW9G17    29.95R
ORANGE CITY *  CLEAR     45  37  76 NW14      29.94R WCI  38
SHELDON *      CLEAR     45  37  76 NW17G25   29.91R WCI  37
SIOUX CITY     CLEAR     52  37  56 NW13      29.95R
SPENCER        CLEAR     43  36  76 NW10      29.90R WCI  37
STORM LAKE *   CLEAR     45  37  76 NW17      29.91R WCI  37
$$

IAZ055>058-069>071-079>083-090>094-270000-
   SOUTHWEST IOWA

CITY           SKY/WX    TMP DP  RH WIND       PRES   REMARKS
ATLANTIC *     CLEAR     50  37  62 NW12G18   29.93R
AUDUBON *      CLEAR     48  37  66 NW8       29.93R
CLARINDA *     CLEAR     55  36  47 NW13G20   29.96R
COUNCIL BLFS * CLEAR     54  37  54 NW12G18   29.95R
CRESTON *      CLEAR     48  37  66 NW14G20   29.92R
HARLAN *       CLEAR     50  39  66 NW14G21   29.97R
LAMONI         CLEAR     51  36  56 NW16      29.89R
RED OAK *      CLEAR     54  36  50 NW10G17   29.95R
SHENANDOAH *   CLEAR     55  34  44 N13G20    29.97R
$$

IAZ047>049-059>061-072>074-084-270000-
   CENTRAL IOWA

CITY           SKY/WX    TMP DP  RH WIND       PRES   REMARKS
AMES           MOCLDY    47  37  68 NW16G25   29.85R
ANKENY *       CLEAR     50  37  62 NW18G24   29.85S
BOONE *        CLEAR     46  39  76 NW15G26   29.85R
CHARITON *     CLEAR     50  37  62 NW13G20   29.86S
DES MOINES     PTCLDY    50  37  61 NW22      29.86R
GRINNELL *     CLOUDY    44  38  81 NW10G17   29.84R WCI  39
KNOXVILLE *    CLEAR     50  36  57 NW13G20   29.84R
MARSHALLTOWN   MOCLDY    43  37  79 NW14      29.83R WCI  36
PELLA *        CLEAR     47  38  69 NW10      29.86R
PERRY *          N/A     48  38  67 NW16G22   29.88R
$$

IAZ004>006-015-016-023>025-035-036-270000-
   NORTH CENTRAL IOWA

CITY           SKY/WX    TMP DP  RH WIND       PRES   REMARKS
ALGONA *       CLOUDY    43  39  87 NW10      29.88R WCI  37
CLARION *      CLOUDY    41  39  93 NW13      29.86R WCI  34
ESTHERVILLE    CLOUDY    41  36  82 NW12      29.88R WCI  34
FORT DODGE *   PTCLDY    45  36  70 NW8       29.89R
MASON CITY     CLEAR     41  35  79 NW16      29.83R WCI  33
WEBSTER CITY * CLOUDY    45  43  93 NW16G24   29.85R WCI  37
IOWA FALLS *   FAIR      42  37  82 NW12      29.85R WCI  35
$$

IAZ007>011-017>019-026>030-037>042-050>054-066-270000-
   NORTHEAST IOWA

CITY           SKY/WX    TMP DP  RH WIND       PRES   REMARKS
CEDAR RAPIDS   CLOUDY    38  36  92 W6        29.81R WCI  33
CHARLES CITY * CLOUDY    41  39  93 NW12      29.81R WCI  34
CLINTON *      CLOUDY    27  25  93 SE7       29.86R WCI  19
DECORAH *      CLOUDY    37  34  87 VRB6      29.78R WCI  33
DUBUQUE        CLOUDY    26  24  92 S6        29.81R FOG     WCI  19
MONTICELLO *   CLOUDY    34  34 100 CALM      29.82R
OELWEIN *      CLOUDY    39  36  87 NW10      29.81R WCI  32
WATERLOO       CLOUDY    43  36  76 NW9       29.81R WCI  38
$$

IAZ064-065-067-068-078-270000-
   EAST CENTRAL IOWA

CITY           SKY/WX    TMP DP  RH WIND       PRES   REMARKS
DAVENPORT      CLOUDY    32  27  81 SW6       29.82R WCI  26
IOWA CITY      PTCLDY    34  31  88 CALM      29.84R
MT. PLEASANT * CLOUDY    37  35  94 E5        29.85R WCI  33
MUSCATINE *    PTCLDY    36  32  87 S5        29.84S WCI  32
QUAD CITIES    MOCLDY    31  27  85 SW3       29.82S FOG
$$

IAZ062-063-075>077-085>089-095>099-270000-
   SOUTHEAST IOWA

CITY           SKY/WX    TMP DP  RH WIND       PRES   REMARKS
BURLINGTON     CLOUDY    35  33  92 CALM      29.84R FOG
FAIRFIELD *    CLEAR     45  37  76 NW10      29.84R WCI  39
FORT MADISON * CLOUDY    39  36  87 CALM      29.85R
KEOKUK *       CLOUDY    45  36  70 NW5       29.84R
OTTUMWA        CLEAR     47  36  65 NW12      29.84R
WASHINGTON *   MOCLDY    41  41 100 NW6       29.84R WCI  37
$$

ABBREVIATIONS USED IN REMARKS
   TC - TEMPERATURES IN CELSIUS
  WCI - WIND CHILL INDEX
   HX - HEAT INDEX
  VSB - VISIBILITY
$$



USA.gov is the U.S. government's official web portal to all federal, state and local government web resources and services.